PDT,Max TemperatureF,Mean TemperatureF,Min TemperatureF,Max Dew PointF,MeanDew PointF,Min DewpointF,Max Humidity, Mean Humidity, Min Humidity, Max Sea Level PressureIn, Mean Sea Level PressureIn, Min Sea Level PressureIn, Max VisibilityMiles, Mean VisibilityMiles, Min VisibilityMiles, Max Wind SpeedMPH, Mean Wind SpeedMPH, Max Gust SpeedMPH,PrecipitationIn, CloudCover, Events, WindDirDegrees
2013-9-1,96,85,74,67,66,64,74,55,36,29.90,29.86,29.79,10,10,10,17,4,23,0.00,2,,268
2013-9-2,95,84,72,64,63,62,79,57,34,29.89,29.83,29.75,10,10,10,14,3,21,0.00,2,,268
2013-9-3,100,88,76,65,61,55,69,47,24,29.87,29.82,29.77,10,10,10,20,4,25,0.00,1,,278
2013-9-4,104,89,73,62,58,53,64,44,23,29.88,29.83,29.78,10,10,10,20,4,25,0.00,1,,211
2013-9-5,104,90,75,57,53,42,50,35,20,29.85,29.81,29.76,10,10,10,21,4,25,0.00,1,,265
2013-9-6,102,89,76,53,50,45,43,31,19,29.84,29.80,29.74,10,10,10,13,3,16,0.00,1,,260
2013-9-7,102,89,75,62,53,38,43,30,17,29.83,29.80,29.74,10,10,10,17,4,22,0.00,1,,267
2013-9-8,98,85,71,55,50,39,53,34,14,29.86,29.77,29.70,10,10,10,15,3,21,0.00,0,,269
2013-9-9,91,82,72,56,51,41,53,37,20,29.77,29.73,29.68,10,10,10,15,5,22,0.00,2,,273
2013-9-10,89,76,62,58,56,52,84,56,27,29.91,29.84,29.77,10,10,10,16,4,23,0.00,1,,265
2013-9-11,87,74,61,58,56,53,84,58,32,29.96,29.91,29.87,10,9,7,15,4,26,0.00,0,,275
2013-9-12,95,79,62,58,53,41,84,50,16,29.91,29.84,29.77,10,9,7,14,3,18,0.00,0,,267
2013-9-13,95,79,63,54,50,41,67,43,18,29.81,29.71,29.63,10,10,10,13,3,18,0.00,0,,273
2013-9-14,100,83,66,54,52,48,63,43,23,29.68,29.65,29.58,10,10,10,13,1,17,0.00,0,,270
2013-9-15,102,84,66,57,55,54,37,29,21,29.73,29.71,29.69,10,10,10,12,8,,0.00,0,,275
2013-9-16,100,83,66,55,55,55,26,26,26,29.67,29.67,29.67,10,10,10,15,15,,0.00,0,,260
2013-9-17,89,76,62,57,54,52,67,51,35,29.76,29.72,29.67,10,10,10,15,4,23,0.00,0,,275
2013-9-18,,,,,,,,,,,,,,,,,,,0.00,,,-1
2013-9-19,87,73,59,,,,,,,,,,,,,,,,0.00,,,
2013-9-20,79,71,63,61,61,61,73,69,65,29.84,29.84,29.83,10,10,10,12,12,,0.00,0,,265
2013-9-21,80,72,63,57,55,54,82,73,68,29.89,29.83,29.79,10,10,9,9,5,,0.00,5,,270
2013-9-22,80,70,59,55,52,45,84,58,31,29.85,29.79,29.73,10,10,10,16,4,20,0.00,3,,271
2013-9-23,95,76,57,50,43,33,72,42,11,29.86,29.81,29.76,10,10,10,13,3,17,0.00,0,,353
2013-9-24,91,76,60,47,41,34,56,35,14,29.90,29.85,29.79,10,10,10,17,6,24,0.00,0,,318
2013-9-25,82,69,56,56,49,43,62,45,28,29.82,29.74,29.65,10,10,10,16,4,24,0.00,1,,319
2013-9-26,75,67,59,53,46,34,78,50,21,29.86,29.76,29.69,10,10,10,17,5,22,T,3,,242
2013-9-27,85,68,51,44,31,17,66,37,8,29.98,29.91,29.86,10,10,10,17,7,29,0.00,0,,19
2013-9-28,91,72,52,35,27,10,41,23,5,30.01,29.97,29.91,10,10,10,13,3,20,0.00,0,,21
2013-9-29,90,72,54,42,33,21,47,28,8,30.04,29.99,29.92,10,10,10,14,5,20,0.00,0,,340
2013-9-30,90,72,54,47,39,26,55,34,12,29.96,29.89,29.82,10,10,10,16,4,22,0.00,0,,286